Location: Crescent
(42.8242°N, 73.7329°W)
Time: 05:53:18
(UTC+00:00)

Explorer 7 - Pass Details

Date: 18 February 2026
Orbit: 430 x 542 km, 50.2° (Epoch: 5 March)

Event Time Altitude Azimuth Distance (km) Brightness Sun altitude
Enters shadow 02:31:34 - 294° (WNW) 2,604 11.1 -43.9°
Rises 02:31:37 0° 294° (WNW) 2,583 - -43.9°
Reaches altitude 10° 02:33:56 10° 284° (WNW) 1,718 - -44.2°
Maximum altitude 02:37:23 31° 221° (SW) 929 - -44.8°
Drops below altitude 10° 02:40:57 10° 159° (SSE) 1,763 - -45.3°
Sets 02:43:22 0° 149° (SSE) 2,664 - -45.7°
